星链-3962 (STARLINK-3962 )

导读 | 豆包AI

STARLINK-3962是美国太空探索技术公司(SpaceX)星链互联网卫星星座中的一颗卫星,于2022年5月18日发射入轨,属于Starlink Group批次卫星。星链项目旨在通过近地轨道卫星群,为全球提供高速低延迟的宽带互联网覆盖服务,该卫星目前在既定轨道运行,支撑星座组网服务。

Basic Information
目录编号:
52708
目录名称:
STARLINK-3962
国际标识:
2022-053BE
轨道中心:
EARTH
卫星名称:
星链-3962
卫星全名:
星链-3962 (STARLINK-3962 )
卫星状态:
在轨 (已飞行1443 天)
发射日期:
2022-05-18 UTC
国别 :
美国 (US)
星等 :
--
Orbit Information
数据来源 国际轨道数据 AOE轨道数据
星历时间 2026-04-30T21:40:55+0800
8小时前
查看轨道信息
2026-04-30T08:00:00+0800
22小时前
查看轨道信息
半长轴 6917.863km 6917.867km
偏心率 0.0001428 0.000105
轨道倾角 53.218° 53.215°
近地点辐角 102.023° 60.165°
升交点赤经 261.210° 263.769°
平近点角 258.093° 81.661°
近地点 538.738km 539.003km
远地点 540.714km 540.457km
周期 95.437分钟 95.437分钟
每日圈数 15.088458 15.088444
Detailed Information
固有亮度:
5
最大亮度:
2.5
卫星平台:
Starlink v1.5
覆盖范围:
全球
运营商:
太空探索技术公司
运营商所在国:
美国
制造商(研发单位):
太空探索技术公司
制造商所在国:
美国
使用方式:
暂无
Satellite Introduction
星链(Starlink)计划是由太空探索技术公司(SpaceX)提出的一个巨型低轨卫星互联网星座项目,计划在2019年至2024年间在太空搭建由约1.2万颗卫星组成的“星链”网络,其中1584颗将部署在地球上空550千米处的近地轨道,并从2020年开始工作。该卫星仍在工作。
2D Orbit Map
3D Orbit Map
Orbit Altitude Analysis Chart
Orbit Inclination Analysis Chart
Orbit Comprehensive Analysis Chart
View Comprehensive Chart